,,Stat5,,Stat1,,Stat2,,Stat3,,Stat4,,Wind1,,Wind1,
time,status,PA1M_AVG,status,PR1M_SUM,status,RH1M_AVG,status,SR1M_AVG,status,TA1M_AVG,status,W1dAve1m,status,W1sAve1m,
2002-09-08, 09:08:00,VALID,919.217,VALID,0,VALID,79.6503,VALID,255.894,VALID,22.835,VALID,7,VALID,0.487109,
2002-09-08, 09:09:00,VALID,919.218,VALID,0,VALID,78.2291,VALID,254.05,VALID,22.8363,VALID,9,VALID,0.707031,
2002-09-08, 09:10:00,VALID,919.222,VALID,0,VALID,78.5763,VALID,252.624,VALID,22.8198,VALID,22,VALID,0.576758,
2002-09-08, 09:11:00,VALID,919.235,VALID,0,VALID,78.0422,VALID,251.622,VALID,22.7649,VALID,347,VALID,0.338405,
2002-09-08, 09:12:00,VALID,919.248,VALID,0,VALID,76.3052,VALID,249.228,VALID,22.5839,VALID,303,VALID,0.205329,
2002-09-08, 09:13:00,VALID,919.259,VALID,0,VALID,76.2225,VALID,244.439,VALID,22.5532,VALID,8,VALID,0.447574,
2002-09-08, 09:14:00,VALID,919.27,VALID,0,VALID,75.2625,VALID,239.617,VALID,22.4854,VALID,11,VALID,0.196801,
2002-09-08, 09:15:00,VALID,919.267,VALID,0,VALID,76.267,VALID,235.762,VALID,22.5074,VALID,11,VALID,0.112689,
2002-09-08, 09:16:00,VALID,919.259,VALID,0,VALID,77.8336,VALID,234.743,VALID,22.5688,VALID,357,VALID,0.233984,
2002-09-08, 09:17:00,VALID,919.244,VALID,0,VALID,77.3212,VALID,234.828,VALID,22.5004,VALID,260,VALID,0.600929,
2002-09-08, 09:18:00,VALID,919.253,VALID,0,VALID,74.5936,VALID,236.407,VALID,22.3205,VALID,270,VALID,0.616132,
2002-09-08, 09:19:00,VALID,919.251,VALID,0,VALID,76.1043,VALID,238.292,VALID,22.191,VALID,263,VALID,0.410056,
2002-09-08, 09:20:00,VALID,919.25,VALID,0.2,VALID,77.0389,VALID,241.332,VALID,22.2039,VALID,354,VALID,0.839844,
2002-09-08, 09:21:00,VALID,919.249,VALID,0,VALID,76.4069,VALID,245.118,VALID,22.2007,VALID,7,VALID,0.532769,
2002-09-08, 09:22:00,VALID,919.258,VALID,0,VALID,77.4763,VALID,248.837,VALID,22.2489,VALID,16,VALID,0.338199,
2002-09-08, 09:23:00,VALID,919.28,VALID,0,VALID,75.8843,VALID,251.673,VALID,22.2524,VALID,309,VALID,0.405194,
2002-09-08, 09:24:00,VALID,919.299,VALID,0,VALID,76.4133,VALID,252.539,VALID,22.2518,VALID,307,VALID,0,
2002-09-08, 09:25:00,VALID,919.312,VALID,0,VALID,78.2978,VALID,251.18,VALID,22.3717,VALID,6,VALID,0.494932,
2002-09-08, 09:26:00,VALID,919.324,VALID,0,VALID,78.9145,VALID,248.48,VALID,22.4845,VALID,26,VALID,0.921007,
2002-09-08, 09:27:00,VALID,919.335,VALID,0,VALID,78.4949,VALID,244.965,VALID,22.5468,VALID,28,VALID,0.807692,
2002-09-08, 09:28:00,VALID,919.362,VALID,0,VALID,77.5361,VALID,241.162,VALID,22.5912,VALID,34,VALID,0.540246,
2002-09-08, 09:29:00,VALID,919.383,VALID,0,VALID,78.0854,VALID,237.596,VALID,22.6952,VALID,26,VALID,0.617821,
2002-09-08, 09:30:00,VALID,919.403,VALID,0,VALID,78.8471,VALID,234.149,VALID,22.746,VALID,20,VALID,0.745793,
2002-09-08, 09:31:00,VALID,919.434,VALID,0,VALID,77.1076,VALID,231.754,VALID,22.7916,VALID,17,VALID,1.64107,
2002-09-08, 09:32:00,VALID,919.458,VALID,0,VALID,74.7042,VALID,230.871,VALID,22.6652,VALID,13,VALID,1.2097,
2002-09-08, 09:33:00,VALID,919.47,VALID,0,VALID,74.9929,VALID,231.16,VALID,22.5847,VALID,17,VALID,1.32545,
2002-09-08, 09:34:00,VALID,919.485,VALID,0,VALID,75.5244,VALID,232.773,VALID,22.4751,VALID,12,VALID,1.20605,
2002-09-08, 09:35:00,VALID,919.497,VALID,0,VALID,76.5226,VALID,235.507,VALID,22.4264,VALID,13,VALID,0.785567,
2002-09-08, 09:36:00,VALID,919.507,VALID,0,VALID,77.7688,VALID,238.683,VALID,22.4428,VALID,12,VALID,0.931891,
2002-09-08, 09:37:00,VALID,919.506,VALID,0,VALID,76.8723,VALID,242.792,VALID,22.4034,VALID,356,VALID,1.20793,
2002-09-08, 09:38:00,VALID,919.498,VALID,0,VALID,74.5936,VALID,248.192,VALID,22.3259,VALID,11,VALID,1.52409,
2002-09-08, 09:39:00,VALID,919.509,VALID,0,VALID,75.63,VALID,255.68,VALID,22.2327,VALID,9,VALID,1.37479,
2002-09-08, 09:40:00,VALID,919.519,VALID,0,VALID,77.2525,VALID,265.292,VALID,22.1937,VALID,11,VALID,1.38164,
2002-09-08, 09:41:00,VALID,919.521,VALID,0,VALID,76.9715,VALID,277.348,VALID,22.1708,VALID,13,VALID,1.33194,
2002-09-08, 09:42:00,VALID,919.513,VALID,0,VALID,75.6656,VALID,290.542,VALID,22.2093,VALID,16,VALID,1.25443,
2002-09-08, 09:43:00,VALID,919.511,VALID,0,VALID,76.1462,VALID,304.534,VALID,22.1944,VALID,8,VALID,1.17884,
2002-09-08, 09:44:00,VALID,919.536,VALID,0,VALID,76.2238,VALID,318.289,VALID,22.1817,VALID,352,VALID,1.39773,
2002-09-08, 09:45:00,VALID,919.522,VALID,0,VALID,77.0236,VALID,332.977,VALID,22.1236,VALID,355,VALID,1.20112,
2002-09-08, 09:46:00,VALID,919.532,VALID,0,VALID,77.8934,VALID,349.788,VALID,22.1817,VALID,20,VALID,1.53768,
2002-09-08, 09:47:00,VALID,919.547,VALID,0,VALID,79.24,VALID,367.686,VALID,22.2951,VALID,10,VALID,1.29688,
2002-09-08, 09:48:00,VALID,919.565,VALID,0,VALID,78.5813,VALID,373.901,VALID,22.373,VALID,2,VALID,1.17637,
2002-09-08, 09:49:00,VALID,919.587,VALID,0,VALID,79.5516,VALID,372.559,VALID,22.4214,VALID,27,VALID,1.29319,
2002-09-08, 09:50:00,VALID,919.608,VALID,0,VALID,79.5325,VALID,371.048,VALID,22.5157,VALID,19,VALID,1.32832,
2002-09-08, 09:51:00,VALID,919.634,VALID,0,VALID,77.9786,VALID,373.867,VALID,22.5081,VALID,7,VALID,1.77344,
2002-09-08, 09:52:00,VALID,919.651,VALID,0,VALID,78.9158,VALID,377.705,VALID,22.4696,VALID,17,VALID,1.56394,
2002-09-08, 09:53:00,VALID,919.651,VALID,0,VALID,77.6073,VALID,383.903,VALID,22.479,VALID,349,VALID,1.23037,
2002-09-08, 09:54:00,VALID,919.668,VALID,0,VALID,74.6419,VALID,391.901,VALID,22.4373,VALID,340,VALID,1.54746,
2002-09-08, 09:55:00,VALID,919.655,VALID,0,VALID,73.3322,VALID,403.04,VALID,22.3824,VALID,360,VALID,1.71758,
2002-09-08, 09:56:00,VALID,919.671,VALID,0,VALID,76.4972,VALID,417.593,VALID,22.4279,VALID,12,VALID,2.08758,
2002-09-08, 09:57:00,VALID,919.665,VALID,0,VALID,78.0409,VALID,439.056,VALID,22.4955,VALID,23,VALID,1.40214,
2002-09-08, 09:58:00,VALID,919.663,VALID,0,VALID,78.7111,VALID,440.517,VALID,22.6371,VALID,6,VALID,1.04379,
2002-09-08, 09:59:00,VALID,919.669,VALID,0,VALID,77.0948,VALID,427.543,VALID,22.7831,VALID,351,VALID,0.883013,
2002-09-08, 10:00:00,VALID,919.675,VALID,0,VALID,74.7678,VALID,391.052,VALID,22.8125,VALID,359,VALID,1.45641,
2002-09-08, 10:01:00,VALID,919.696,VALID,0,VALID,73.0333,VALID,364.884,VALID,22.8028,VALID,11,VALID,1.53228,
2002-09-08, 10:02:00,VALID,919.709,VALID,0,VALID,70.4876,VALID,349.398,VALID,22.744,VALID,341,VALID,1.82192,
2002-09-08, 10:03:00,VALID,919.726,VALID,0,VALID,71.6053,VALID,338.275,VALID,22.6565,VALID,337,VALID,1.25106,
2002-09-08, 10:04:00,VALID,919.74,VALID,0,VALID,73.0753,VALID,331.33,VALID,22.5924,VALID,354,VALID,1.76769,
2002-09-08, 10:05:00,VALID,919.756,VALID,0,VALID,74.2477,VALID,326.728,VALID,22.5307,VALID,360,VALID,1.51626,
2002-09-08, 10:06:00,VALID,919.766,VALID,0,VALID,74.516,VALID,323.858,VALID,22.4984,VALID,15,VALID,1.89423,
2002-09-08, 10:07:00,VALID,919.359,VALID,0,VALID,73.6056,VALID,324.096,VALID,22.5011,VALID,345,VALID,1.59665,
2002-09-08, 10:08:00,VALID,919.767,VALID,0,VALID,73.2521,VALID,326.287,VALID,22.4391,VALID,353,VALID,1.77632,
2002-09-08, 10:09:00,VALID,919.755,VALID,0,VALID,73.8751,VALID,328.647,VALID,22.4133,VALID,357,VALID,1.6471,
2002-09-08, 10:10:00,VALID,919.765,VALID,0,VALID,74.057,VALID,329.785,VALID,22.3589,VALID,336,VALID,1.50898,
2002-09-08, 10:11:00,VALID,919.78,VALID,0,VALID,74.2197,VALID,329.428,VALID,22.3366,VALID,337,VALID,1.47368,
2002-09-08, 10:12:00,VALID,919.792,VALID,0,VALID,73.1681,VALID,326.321,VALID,22.2919,VALID,327,VALID,0.972756,
2002-09-08, 10:13:00,VALID,919.802,VALID,0,VALID,74.6317,VALID,321.787,VALID,22.3286,VALID,345,VALID,1.10036,
2002-09-08, 10:14:00,VALID,919.81,VALID,0,VALID,73.795,VALID,318.272,VALID,22.3541,VALID,344,VALID,1.3546,
2002-09-08, 10:15:00,VALID,919.809,VALID,0,VALID,74.5847,VALID,314.553,VALID,22.3509,VALID,340,VALID,1.09248,
2002-09-08, 10:16:00,VALID,919.82,VALID,0,VALID,73.8421,VALID,310.138,VALID,22.4255,VALID,342,VALID,0.751758,
2002-09-08, 10:17:00,VALID,919.837,VALID,0,VALID,74.8797,VALID,305.502,VALID,22.5351,VALID,358,VALID,1.06326,
2002-09-08, 10:18:00,VALID,919.83,VALID,0,VALID,76.7528,VALID,300.934,VALID,22.6485,VALID,14,VALID,1.57137,
2002-09-08, 10:19:00,VALID,919.857,VALID,0,VALID,76.3103,VALID,296.74,VALID,22.7578,VALID,11,VALID,1.03104,
2002-09-08, 10:20:00,VALID,919.855,VALID,0,VALID,76.6015,VALID,292.478,VALID,22.7907,VALID,8,VALID,0.852746,
2002-09-08, 10:21:00,VALID,919.863,VALID,0,VALID,77.1304,VALID,287.519,VALID,22.8063,VALID,18,VALID,1.17808,
2002-09-08, 10:22:00,VALID,919.878,VALID,0,VALID,75.4138,VALID,281.78,VALID,22.8069,VALID,359,VALID,1.23621,
2002-09-08, 10:23:00,VALID,919.865,VALID,0,VALID,75.0259,VALID,274.716,VALID,22.784,VALID,14,VALID,1.31862,
2002-09-08, 10:24:00,VALID,919.884,VALID,0,VALID,75.3171,VALID,266.905,VALID,22.823,VALID,7,VALID,0.990625,
2002-09-08, 10:25:00,VALID,919.887,VALID,0,VALID,76.4387,VALID,259.212,VALID,22.8095,VALID,356,VALID,1.23785,
2002-09-08, 10:26:00,VALID,919.892,VALID,0,VALID,74.3583,VALID,252.488,VALID,22.7743,VALID,356,VALID,1.27129,
2002-09-08, 10:27:00,VALID,919.882,VALID,0,VALID,71.5494,VALID,247.173,VALID,22.6732,VALID,356,VALID,1.63158,
2002-09-08, 10:28:00,VALID,919.875,VALID,0,VALID,72.6353,VALID,243.488,VALID,22.5628,VALID,347,VALID,0.860197,
2002-09-08, 10:29:00,VALID,919.875,VALID,0,VALID,73.7009,VALID,241.773,VALID,22.5555,VALID,16,VALID,1.27458,
2002-09-08, 10:30:00,VALID,919.872,VALID,0,VALID,74.8644,VALID,242.52,VALID,22.6204,VALID,11,VALID,0.971875,
2002-09-08, 10:31:00,VALID,919.855,VALID,0,VALID,75.9084,VALID,245.475,VALID,22.7111,VALID,21,VALID,1.18516,
2002-09-08, 10:32:00,VALID,919.84,VALID,0,VALID,73.4568,VALID,250.331,VALID,22.7041,VALID,359,VALID,1.03372,
2002-09-08, 10:33:00,VALID,919.829,VALID,0,VALID,74.6534,VALID,255.782,VALID,22.6885,VALID,10,VALID,1.07052,
2002-09-08, 10:34:00,VALID,919.812,VALID,0,VALID,72.6226,VALID,261.114,VALID,22.6268,VALID,13,VALID,1.77508,
2002-09-08, 10:35:00,VALID,919.797,VALID,0,VALID,72.7205,VALID,265.648,VALID,22.5778,VALID,11,VALID,1.26122,
2002-09-08, 10:36:00,VALID,919.788,VALID,0,VALID,73.6844,VALID,269.537,VALID,22.5913,VALID,16,VALID,1.04461,
2002-09-08, 10:37:00,VALID,919.768,VALID,0,VALID,73.6908,VALID,273.595,VALID,22.6036,VALID,334,VALID,0.918997,
2002-09-08, 10:38:00,VALID,919.757,VALID,0,VALID,73.4555,VALID,276.295,VALID,22.5878,VALID,5,VALID,1.24196,
2002-09-08, 10:39:00,VALID,919.747,VALID,0,VALID,72.8884,VALID,279.216,VALID,22.5848,VALID,17,VALID,1.62204,
2002-09-08, 10:40:00,VALID,919.718,VALID,0,VALID,73.7543,VALID,283.02,VALID,22.6424,VALID,21,VALID,1.60064,
2002-09-08, 10:41:00,VALID,919.707,VALID,0,VALID,75.2332,VALID,288.487,VALID,22.7399,VALID,15,VALID,1.19426,
2002-09-08, 10:42:00,VALID,919.703,VALID,0,VALID,75.1569,VALID,295.127,VALID,22.7978,VALID,358,VALID,1.1272,
2002-09-08, 10:43:00,VALID,919.697,VALID,0,VALID,76.4069,VALID,302.683,VALID,22.9048,VALID,25,VALID,1.175,
2002-09-08, 10:44:00,VALID,919.67,VALID,0,VALID,75.1239,VALID,310.919,VALID,23.0205,VALID,16,VALID,1.89535,
2002-09-08, 10:45:00,VALID,919.647,VALID,0,VALID,75.5079,VALID,318.747,VALID,22.9856,VALID,5,VALID,1.46451,
2002-09-08, 10:46:00,VALID,919.663,VALID,0,VALID,73.5267,VALID,327.068,VALID,22.9956,VALID,331,VALID,0.738477,
2002-09-08, 10:47:00,VALID,919.656,VALID,0,VALID,72.1178,VALID,335.694,VALID,22.9303,VALID,358,VALID,1.29112,
2002-09-08, 10:48:00,VALID,919.63,VALID,0,VALID,71.2645,VALID,345.39,VALID,22.8589,VALID,338,VALID,0.947917,
2002-09-08, 10:49:00,VALID,919.634,VALID,0,VALID,73.2966,VALID,355.68,VALID,22.9339,VALID,16,VALID,1.24399,
2002-09-08, 10:50:00,VALID,919.634,VALID,0,VALID,75.1556,VALID,366.99,VALID,23.0955,VALID,21,VALID,1.36046,
2002-09-08, 10:51:00,VALID,919.623,VALID,0,VALID,75.5028,VALID,379.895,VALID,23.2562,VALID,18,VALID,1.22867,
2002-09-08, 10:52:00,VALID,919.616,VALID,0,VALID,74.6279,VALID,394.023,VALID,23.3182,VALID,21,VALID,1.16543,
2002-09-08, 10:53:00,VALID,919.606,VALID,0,VALID,77.592,VALID,410.087,VALID,23.4695,VALID,28,VALID,1.28201,
2002-09-08, 10:54:00,VALID,919.598,VALID,0,VALID,76.7121,VALID,426.694,VALID,23.6958,VALID,24,VALID,1.11951,
2002-09-08, 10:55:00,VALID,919.588,VALID,0,VALID,75.4379,VALID,442.894,VALID,23.9285,VALID,359,VALID,0.532095,
2002-09-08, 10:56:00,VALID,919.567,VALID,0,VALID,73.2686,VALID,457.413,VALID,24.0064,VALID,350,VALID,0.832386,
2002-09-08, 10:57:00,VALID,919.55,VALID,0,VALID,70.6249,VALID,469.537,VALID,24.02,VALID,14,VALID,0.810497,
2002-09-08, 10:58:00,VALID,919.517,VALID,0,VALID,72.5311,VALID,479.08,VALID,24.1784,VALID,15,VALID,0.838925,
2002-09-08, 10:59:00,VALID,919.505,VALID,0,VALID,73.2635,VALID,486.942,VALID,24.3197,VALID,26,VALID,0.347551,
2002-09-08, 11:00:00,VALID,919.485,VALID,0,VALID,71.5685,VALID,494.278,VALID,24.4035,VALID,287,VALID,0.394922,
2002-09-08, 11:01:00,VALID,919.479,VALID,0,VALID,70.0133,VALID,501.325,VALID,24.3938,VALID,243,VALID,0.552083,
2002-09-08, 11:02:00,VALID,919.464,VALID,0,VALID,71.0967,VALID,509.866,VALID,24.276,VALID,225,VALID,0.321484,
2002-09-08, 11:03:00,VALID,919.447,VALID,0,VALID,72.3505,VALID,521.193,VALID,24.3397,VALID,184,VALID,0.0511924,
2002-09-08, 11:04:00,VALID,919.415,VALID,0,VALID,68.7925,VALID,531.262,VALID,24.4173,VALID,157,VALID,0.395148,
2002-09-08, 11:05:00,VALID,919.398,VALID,0,VALID,70.4927,VALID,538.445,VALID,24.5367,VALID,78,VALID,0.24295,
2002-09-08, 11:06:00,VALID,919.384,VALID,0,VALID,71.3879,VALID,543.862,VALID,24.5793,VALID,313,VALID,0.64668,
2002-09-08, 11:07:00,VALID,919.383,VALID,0,VALID,71.2366,VALID,550.009,VALID,24.5829,VALID,335,VALID,0.60957,
2002-09-08, 11:08:00,VALID,919.391,VALID,0,VALID,71,VALID,564.647,VALID,24.7119,VALID,290,VALID,0.136308,
2002-09-08, 11:09:00,VALID,919.407,VALID,0,VALID,69.1651,VALID,600.391,VALID,24.9347,VALID,299,VALID,0.319285,
2002-09-08, 11:10:00,VALID,919.413,VALID,0,VALID,65.5309,VALID,632.536,VALID,25.1802,VALID,141,VALID,0.48088,
2002-09-08, 11:11:00,VALID,919.411,VALID,0,VALID,66.1298,VALID,626.593,VALID,25.1863,VALID,249,VALID,0.307893,
2002-09-08, 11:12:00,VALID,919.404,VALID,0,VALID,66.5189,VALID,623.604,VALID,25.1275,VALID,242,VALID,0.0805921,
2002-09-08, 11:13:00,VALID,919.402,VALID,0,VALID,65.8361,VALID,596.197,VALID,25.0955,VALID,328,VALID,0.378289,
2002-09-08, 11:14:00,VALID,919.403,VALID,0,VALID,64.389,VALID,605.197,VALID,25.1149,VALID,276,VALID,0.566406,
2002-09-08, 11:15:00,VALID,919.417,VALID,0,VALID,64.8862,VALID,582.901,VALID,24.9176,VALID,228,VALID,0.462416,
2002-09-08, 11:16:00,VALID,919.423,VALID,0,VALID,65.7598,VALID,582.918,VALID,24.8581,VALID,227,VALID,0.547335,
2002-09-08, 11:17:00,VALID,919.427,VALID,0,VALID,67.2501,VALID,595.195,VALID,24.7996,VALID,260,VALID,0.26647,
2002-09-08, 11:18:00,VALID,919.414,VALID,0,VALID,66.9932,VALID,610.24,VALID,24.8349,VALID,297,VALID,0.359175,
2002-09-08, 11:19:00,VALID,919.405,VALID,0,VALID,65.9289,VALID,633.402,VALID,25.0098,VALID,336,VALID,0.297545,
2002-09-08, 11:20:00,VALID,919.389,VALID,0,VALID,64.333,VALID,622.721,VALID,25.2174,VALID,303,VALID,0.366365,
2002-09-08, 11:21:00,VALID,919.378,VALID,0,VALID,65.3821,VALID,622.144,VALID,25.2168,VALID,274,VALID,0.775,
2002-09-08, 11:22:00,VALID,919.373,VALID,0,VALID,64.9828,VALID,634.591,VALID,25.0968,VALID,348,VALID,0.808594,
2002-09-08, 11:23:00,VALID,919.371,VALID,0,VALID,67.6074,VALID,710.885,VALID,25.2721,VALID,20,VALID,0.751234,
2002-09-08, 11:24:00,VALID,919.359,VALID,0,VALID,65.714,VALID,754.136,VALID,25.4787,VALID,292,VALID,0.520032,
2002-09-08, 11:25:00,VALID,919.355,VALID,0,VALID,61.1362,VALID,647.853,VALID,25.3364,VALID,243,VALID,0.528245,
2002-09-08, 11:26:00,VALID,919.343,VALID,0,VALID,62.5579,VALID,675.497,VALID,25.3587,VALID,213,VALID,0.669488,
2002-09-08, 11:27:00,VALID,919.302,VALID,0,VALID,63.0385,VALID,632.196,VALID,25.2197,VALID,288,VALID,0.328336,
2002-09-08, 11:28:00,VALID,919.292,VALID,0,VALID,64.1486,VALID,610.97,VALID,25.3837,VALID,5,VALID,0.655469,
2002-09-08, 11:29:00,VALID,919.277,VALID,0,VALID,62.549,VALID,621.312,VALID,25.4548,VALID,248,VALID,0.284961,
2002-09-08, 11:30:00,VALID,919.247,VALID,0,VALID,63.5179,VALID,611.021,VALID,25.6233,VALID,191,VALID,0.227618,
2002-09-08, 11:31:00,VALID,919.239,VALID,0,VALID,60.8463,VALID,601.02,VALID,25.8594,VALID,152,VALID,0.280828,
2002-09-08, 11:32:00,VALID,919.212,VALID,0,VALID,61.1298,VALID,597.878,VALID,26.0078,VALID,15,VALID,0.619318,
2002-09-08, 11:33:00,VALID,919.228,VALID,0,VALID,60.4966,VALID,610.189,VALID,25.7843,VALID,324,VALID,0.701322,
2002-09-08, 11:34:00,VALID,919.224,VALID,0,VALID,61.6957,VALID,639.974,VALID,25.862,VALID,24,VALID,0.936351,
2002-09-08, 11:35:00,VALID,919.205,VALID,0,VALID,60.3249,VALID,635.83,VALID,25.9202,VALID,43,VALID,1.03019,
2002-09-08, 11:36:00,VALID,919.176,VALID,0,VALID,61.0866,VALID,641.145,VALID,25.8264,VALID,41,VALID,0.220703,
2002-09-08, 11:37:00,VALID,919.162,VALID,0,VALID,61.2761,VALID,671.354,VALID,25.8005,VALID,275,VALID,0.300781,
2002-09-08, 11:38:00,VALID,919.12,VALID,0,VALID,62.7969,VALID,680.048,VALID,25.6815,VALID,223,VALID,0.664063,
2002-09-08, 11:39:00,VALID,919.097,VALID,0,VALID,62.8961,VALID,744.592,VALID,25.4849,VALID,260,VALID,0.753701,
2002-09-08, 11:40:00,VALID,919.073,VALID,0,VALID,62.1433,VALID,729.768,VALID,25.3558,VALID,244,VALID,0.857113,
2002-09-08, 11:41:00,VALID,919.036,VALID,0,VALID,62.9775,VALID,790.237,VALID,25.349,VALID,233,VALID,0.636052,
2002-09-08, 11:42:00,VALID,919.042,VALID,0,VALID,60.9569,VALID,774.852,VALID,25.3778,VALID,275,VALID,0.499023,
2002-09-08, 11:43:00,VALID,919.032,VALID,0,VALID,61.8572,VALID,762.066,VALID,25.3678,VALID,245,VALID,0.789063,
2002-09-08, 11:44:00,VALID,919.021,VALID,0,VALID,61.4096,VALID,714.876,VALID,25.1243,VALID,250,VALID,0.753906,
2002-09-08, 11:45:00,VALID,918.991,VALID,0,VALID,63.7799,VALID,683.784,VALID,25.1343,VALID,280,VALID,0.41653,
2002-09-08, 11:46:00,VALID,918.977,VALID,0,VALID,63.1542,VALID,735.508,VALID,25.1638,VALID,234,VALID,0.807155,
2002-09-08, 11:47:00,VALID,918.964,VALID,0,VALID,63.551,VALID,731.636,VALID,25.0768,VALID,262,VALID,0.998998,
2002-09-08, 11:48:00,VALID,918.95,VALID,0,VALID,64.5225,VALID,782.239,VALID,25.1541,VALID,180,VALID,0.287212,
2002-09-08, 11:49:00,VALID,918.938,VALID,0,VALID,66.0026,VALID,744.932,VALID,25.5162,VALID,1,VALID,0.641447,
2002-09-08, 11:50:00,VALID,918.924,VALID,0,VALID,64.6102,VALID,747.072,VALID,25.8752,VALID,2,VALID,0.5,
2002-09-08, 11:51:00,VALID,918.927,VALID,0,VALID,61.9068,VALID,734.54,VALID,26.0043,VALID,325,VALID,1.17736,
2002-09-08, 11:52:00,VALID,918.932,VALID,0,VALID,59.9549,VALID,794.941,VALID,25.5541,VALID,292,VALID,0.678079,
2002-09-08, 11:53:00,VALID,918.917,VALID,0,VALID,61.1883,VALID,756.207,VALID,25.4509,VALID,332,VALID,0.375845,
2002-09-08, 11:54:00,VALID,918.901,VALID,0,VALID,61.6703,VALID,793.107,VALID,25.5958,VALID,61,VALID,0.731571,
2002-09-08, 11:55:00,VALID,918.881,VALID,0,VALID,63.6298,VALID,784.09,VALID,25.6899,VALID,170,VALID,0.502679,
2002-09-08, 11:56:00,VALID,918.865,VALID,0,VALID,66.0484,VALID,813.569,VALID,25.7769,VALID,240,VALID,0.837377,
2002-09-08, 11:57:00,VALID,918.85,VALID,0,VALID,66.6651,VALID,802.65,VALID,25.8034,VALID,288,VALID,0.535045,
2002-09-08, 11:58:00,VALID,918.84,VALID,0,VALID,64.4411,VALID,791.578,VALID,25.9842,VALID,216,VALID,0.701172,
2002-09-08, 11:59:00,VALID,918.823,VALID,0,VALID,65.8475,VALID,762.575,VALID,25.9677,VALID,56,VALID,0.68236,
2002-09-08, 12:00:00,VALID,918.786,VALID,0,VALID,64.2809,VALID,804.229,VALID,26.0615,VALID,229,VALID,0.971755,
2002-09-08, 12:01:00,VALID,918.769,VALID,0,VALID,63.2013,VALID,813.891,VALID,25.8477,VALID,283,VALID,0.638622,
2002-09-08, 12:02:00,VALID,918.749,VALID,0,VALID,63.2852,VALID,802.718,VALID,25.9709,VALID,273,VALID,0.640625,
2002-09-08, 12:03:00,VALID,918.734,VALID,0,VALID,61.5444,VALID,661.522,VALID,25.87,VALID,239,VALID,0.808699,
2002-09-08, 12:04:00,VALID,918.699,VALID,0,VALID,63.2026,VALID,640.058,VALID,25.8869,VALID,287,VALID,0.517187,
2002-09-08, 12:05:00,VALID,918.685,VALID,0,VALID,65.3325,VALID,610.274,VALID,25.9706,VALID,352,VALID,1.06307,
2002-09-08, 12:06:00,VALID,918.665,VALID,0,VALID,63.167,VALID,594.295,VALID,25.925,VALID,27,VALID,1.07665,
2002-09-08, 12:07:00,VALID,918.647,VALID,0,VALID,63.2394,VALID,578.316,VALID,25.9156,VALID,25,VALID,1.28188,
2002-09-08, 12:08:00,VALID,918.623,VALID,0,VALID,63.8473,VALID,572.492,VALID,25.8322,VALID,360,VALID,0.462358,
2002-09-08, 12:09:00,VALID,918.606,VALID,0,VALID,63.7392,VALID,575.497,VALID,25.8374,VALID,326,VALID,0.413862,
2002-09-08, 12:10:00,VALID,918.571,VALID,0,VALID,64.08,VALID,586.518,VALID,25.9735,VALID,280,VALID,0.696461,
2002-09-08, 12:11:01,VALID,918.543,VALID,0,VALID,64.1194,VALID,628.698,VALID,25.9829,VALID,59,VALID,0.416385,
2002-09-08, 12:12:00,VALID,918.507,VALID,0,VALID,64.4704,VALID,614.333,VALID,26.1288,VALID,116,VALID,0.445508,
2002-09-08, 12:13:01,VALID,918.489,VALID,0,VALID,65.3783,VALID,607.353,VALID,26.3028,VALID,46,VALID,0.350694,
2002-09-08, 12:14:00,VALID,918.487,VALID,0,VALID,64.8785,VALID,606.963,VALID,26.5101,VALID,302,VALID,0.345703,
2002-09-08, 12:15:00,VALID,918.492,VALID,0,VALID,63.1415,VALID,618,VALID,26.6262,VALID,203,VALID,0.48602,
2002-09-08, 12:16:00,VALID,918.482,VALID,0,VALID,63.5472,VALID,583.003,VALID,26.7696,VALID,185,VALID,0.314762,
2002-09-08, 12:17:00,VALID,918.486,VALID,0,VALID,61.5673,VALID,554,VALID,26.8685,VALID,158,VALID,0.371189,
2002-09-08, 12:18:00,VALID,918.482,VALID,0,VALID,63.3971,VALID,512.312,VALID,26.8268,VALID,4,VALID,0.515625,
2002-09-08, 12:19:01,VALID,918.461,VALID,0,VALID,61.6461,VALID,474.835,VALID,26.6003,VALID,277,VALID,0.591406,
2002-09-08, 12:20:00,VALID,918.456,VALID,0,VALID,62.9088,VALID,440.313,VALID,26.263,VALID,296,VALID,0.373972,
2002-09-08, 12:21:00,VALID,918.437,VALID,0,VALID,64.7984,VALID,417.593,VALID,26.2924,VALID,22,VALID,0.389186,
2002-09-08, 12:22:00,VALID,918.412,VALID,0,VALID,65.6873,VALID,412.329,VALID,26.4965,VALID,41,VALID,0.395148,
2002-09-08, 12:23:00,VALID,918.419,VALID,0,VALID,62.858,VALID,416.642,VALID,26.5023,VALID,282,VALID,0.577123,
2002-09-08, 12:24:01,VALID,918.419,VALID,0,VALID,63.3679,VALID,424.945,VALID,26.4418,VALID,177,VALID,0.417146,
2002-09-08, 12:25:00,VALID,918.397,VALID,0,VALID,64.1957,VALID,442.996,VALID,26.4483,VALID,197,VALID,0.45477,
2002-09-08, 12:26:01,VALID,918.378,VALID,0,VALID,64.7298,VALID,460.452,VALID,26.251,VALID,305,VALID,0.360294,
2002-09-08, 12:27:01,VALID,918.381,VALID,0,VALID,65.5474,VALID,509.968,VALID,26.241,VALID,316,VALID,0.371622,
2002-09-08, 12:28:00,VALID,918.367,VALID,0,VALID,66.3625,VALID,552.862,VALID,26.2474,VALID,244,VALID,0.507583,
2002-09-08, 12:29:00,VALID,918.372,VALID,0,VALID,65.4965,VALID,593.854,VALID,26.1605,VALID,256,VALID,0.719806,
2002-09-08, 12:30:00,VALID,918.359,VALID,0,VALID,66.0077,VALID,612.516,VALID,25.8914,VALID,276,VALID,0.659054,
2002-09-08, 12:31:00,VALID,918.345,VALID,0,VALID,67.2577,VALID,629.53,VALID,25.6786,VALID,251,VALID,1.02857,
2002-09-08, 12:32:00,VALID,918.334,VALID,0,VALID,68.3081,VALID,647.072,VALID,25.6197,VALID,237,VALID,0.900288,
2002-09-08, 12:33:00,VALID,918.33,VALID,0,VALID,67.8948,VALID,646.46,VALID,25.6291,VALID,228,VALID,1.18415,
2002-09-08, 12:34:01,VALID,918.315,VALID,0,VALID,67.7015,VALID,645.815,VALID,25.3646,VALID,257,VALID,1.20645,
2002-09-08, 12:35:00,VALID,918.314,VALID,0,VALID,69.5657,VALID,605.995,VALID,25.2967,VALID,250,VALID,0.496711,
2002-09-08, 12:36:01,VALID,918.312,VALID,0,VALID,68.4619,VALID,582.154,VALID,25.3995,VALID,248,VALID,1.07993,
2002-09-08, 12:37:00,VALID,918.311,VALID,0,VALID,68.1288,VALID,554.203,VALID,25.2741,VALID,352,VALID,0.771835,
2002-09-08, 12:38:01,VALID,918.302,VALID,0,VALID,68.3475,VALID,521.6,VALID,25.4516,VALID,352,VALID,0.370877,
2002-09-08, 12:39:00,VALID,918.282,VALID,0,VALID,68.8866,VALID,484.956,VALID,25.5848,VALID,214,VALID,0.393792,
2002-09-08, 12:40:00,VALID,918.284,VALID,0,VALID,69.5695,VALID,456.92,VALID,25.6492,VALID,269,VALID,1.04922,
2002-09-08, 12:41:00,VALID,918.253,VALID,0,VALID,69.9535,VALID,439.226,VALID,25.4354,VALID,267,VALID,0.553735,
2002-09-08, 12:42:00,VALID,918.254,VALID,0,VALID,69.689,VALID,430.889,VALID,25.481,VALID,233,VALID,0.396115,